Regional Weather Roundup
Issued by NWS State College, PA

Home | Current Version | Previous Version | Text Only | Print | Product List | Glossary On
Versions: 1 2 3 4 5 6 7 8 9 10 11 12 13 14 15 16 17 18 19 20 21 22 23 24 25 26 27 28 29 30 31 32 33 34 35 36 37 38 39 40 41 42 43 44 45 46 47 48 49 50
000
ASUS41 KCTP 230610
RWRCTP

REGIONAL WEATHER ROUNDUP
NATIONAL WEATHER SERVICE STATE COLLEGE PA
200 AM EDT MON OCT 23 2017

Note: "fair" indicates few or no clouds below 12,000 feet with no
significant weather and/or obstructions to visibility.

* = STATION THAT DOES NOT REPORT PRECIPITATION /E.G. RAIN...SNOW...ETC/
    THUNDER OR FOG.

PAZ002>004-007>009-013>016-020>023-029>032-230700-
WESTERN PENNSYLVANIA

CITY           SKY/WX    TMP DP  RH WIND       PRES   REMARKS
ERIE           PTCLDY    66  52  60 S14       30.09F
MEADVILLE      MOCLDY    61  53  75 VRB3      30.13F
FRANKLIN*      MOCLDY    60  52  74 S7        30.16F
NEW CASTLE     FAIR      62  53  72 VRB3      30.14
BEAVER COUNTY  NOT AVBL
BUTLER*        PTCLDY    61  52  72 SE6       30.16F
PITTSBURGH INT MOCLDY    61  51  70 SE6       30.14F
PITTSBURGH     PTCLDY    61  49  64 SE7       30.15F
INDIANA*       CLEAR     63  55  77 S8        30.22S
LATROBE        PTCLDY    63  54  72 SE5       30.19S
WASHINGTON CO* PTCLDY    60  48  64 SE7       30.17F
$$

PAZ004>006-010>012-017>019-024>028-033>037-041-042-045-046-049>053-230700-
CENTRAL PENNSYLVANIA

CITY           SKY/WX    TMP DP  RH WIND       PRES   REMARKS
BRADFORD       CLOUDY    58  53  84 SE9       30.21F
DUBOIS         MOCLDY    59  52  77 SE10      30.20F
CLEARFIELD     MOCLDY    59  52  77 E3        30.24F
JOHNSTOWN      PTCLDY    56  53  90 SE7       30.23F
ALTOONA        PTCLDY    61  52  72 SW8       30.25F
STATE COLLEGE  MOCLDY    60  51  70 S3        30.25F
WILLIAMSPORT   PTCLDY    52  48  86 CALM      30.26F
SELINSGROVE    PTCLDY    50  49  96 NW3       30.28F
FT INDIANTOWN  CLOUDY    55  55 100 NE3       30.30F
CAPITAL CITY   CLOUDY    58  49  72 CALM      30.29F
HARRISBURG     CLOUDY    54  51  90 SE5       30.29F
YORK           MOCLDY    54  53  97 CALM      30.29F
$$

PAZ038>040-043-044-047-048-054-055-060>062-067>071-230700-
EASTERN PENNSYLVANIA

CITY           SKY/WX    TMP DP  RH WIND       PRES   REMARKS
SCRANTON       PTCLDY    56  44  64 CALM      30.31F
MOUNT POCONO   CLOUDY    53  53 100 S10       30.33F
ALLENTOWN      CLOUDY    58  50  75 NE5       30.33F
QUAKERTOWN*    CLOUDY    54  50  87 CALM      30.34S
READING        PTCLDY    58  57  97 SE3       30.31S
LANCASTER      FOG       53  53 100 E5        30.31F VSB 1/2
COATESVILLE      N/A     59  59 100 CALM      30.34R FOG
POTTSTOWN      CLOUDY    57  52  83 CALM      30.34F
BLUE BELL      CLOUDY    55  54  94 CALM      30.34F
DOYLESTOWN     CLOUDY    58  54  86 CALM      30.32F
WILLOW GROVE   NOT AVBL
NORTH PHILA    CLOUDY    61  57  87 E7        30.35S
PHILADELPHIA   CLOUDY    62  59  90 E5        30.33S
$$




USA.gov is the U.S. government's official web portal to all federal, state and local government web resources and services.